Location: Byszew
(52.1813°N, 19.2693°E)
Time: 13:01:09
(UTC+00:00)

Meteor 1-11 Rocket - Pass Details

Date: 03 March 2021
Orbit: 831 x 916 km, 81.2° (Epoch: 13 April)

Event Time Altitude Azimuth Distance (km) Brightness Sun altitude
Rises 17:43:07 0° 157° (SSE) 3,460 6.6 -12.6°
Reaches altitude 10° 17:45:50 10° 147° (SSE) 2,512 5.8 -13.0°
Maximum altitude 17:50:40 29° 89° (E) 1,513 4.5 -13.7°
Drops below altitude 10° 17:55:26 10° 30° (NNE) 2,482 5.9 -14.4°
Sets 17:58:06 0° 20° (NNE) 3,411 6.7 -14.8°
